Date,TemperatureHighF,TemperatureAvgF,TemperatureLowF,DewpointHighF,DewpointAvgF,DewpointLowF,HumidityHigh,HumidityAvg,HumidityLow,PressureMaxIn,PressureMinIn,WindSpeedMaxMPH,WindSpeedAvgMPH,GustSpeedMaxMPH,PrecipitationSumIn
2013-3-1,32.1,29.1,23.9,24.8,15.1,11.2,83,57,46,30.18,30.08,24,8,24,0.02
2013-3-2,32.3,26.5,13.6,14.6,5.5,-9.7,53,41,19,30.26,30.17,15,7,15,0.06
2013-3-3,37.7,23.0,7.1,10.7,-2.0,-11.5,65,38,19,30.18,30.04,12,1,12,0.02
2013-3-4,38.1,29.0,23.1,20.6,12.7,-6.8,67,51,25,30.06,29.89,28,6,29,0.02
2013-3-5,31.2,28.9,26.6,24.3,21.4,17.8,83,73,63,30.14,29.87,28,5,28,0.02
2013-3-6,26.9,24.3,19.2,17.8,12.8,10.4,69,61,56,30.34,30.13,23,5,23,0.02
2013-3-7,37.2,26.7,19.9,18.5,13.4,8.8,66,57,42,30.40,30.33,13,1,13,0.04
2013-3-8,44.9,33.3,22.2,26.3,20.1,13.8,71,59,40,30.40,30.20,28,4,28,0.02
2013-3-9,42.4,37.7,34.7,39.7,32.5,25.4,91,81,67,30.20,29.76,23,2,24,0.39
2013-3-10,46.2,42.8,36.1,45.1,41.5,35.1,96,95,89,29.76,29.56,20,0,20,0.98
2013-3-11,36.3,32.5,27.8,35.3,29.1,16.5,96,88,62,29.88,29.60,28,4,28,0.04
2013-3-12,34.1,27.5,23.3,26.9,17.0,9.7,79,65,48,30.12,29.88,28,8,28,0.00
2013-3-13,34.5,25.9,19.0,11.1,3.4,-9.1,62,42,19,30.35,30.12,26,5,27,0.00
2013-3-14,49.1,34.0,21.3,22.6,13.0,3.1,61,45,19,30.34,30.05,20,2,20,0.02
2013-3-15,47.3,34.2,29.6,30.6,26.0,22.5,79,72,43,30.06,29.71,28,2,28,0.00
2013-3-16,38.6,34.1,29.6,31.0,24.5,15.0,89,69,47,30.14,29.71,28,1,28,0.00
2013-3-17,36.8,30.8,23.9,19.2,11.9,-2.5,58,46,19,30.19,29.91,25,6,25,0.00
2013-3-18,35.9,28.6,18.8,30.8,18.4,-0.7,84,66,40,29.91,29.67,28,6,28,0.06
2013-3-19,32.9,22.6,14.1,7.9,-3.5,-11.9,46,33,19,30.16,29.89,28,9,28,0.02
2013-3-20,25.1,17.8,10.7,7.2,-9.4,-11.8,50,27,19,30.21,30.09,33,10,33,0.00
2013-3-21,34.1,21.3,-3.5,10.8,-6.8,-11.9,52,30,19,30.11,30.00,17,2,17,0.00
2013-3-22,44.2,29.7,15.9,10.2,1.2,-8.8,57,32,19,30.07,29.99,12,1,12,0.00
2013-3-23,46.0,35.2,25.8,18.1,5.2,-3.3,54,30,19,30.11,29.98,20,2,20,0.00
2013-3-24,33.2,29.9,27.8,25.8,22.9,9.8,87,75,37,30.02,29.74,28,1,28,0.04
2013-3-25,36.5,31.3,27.6,24.6,17.7,13.7,87,58,42,30.15,29.83,27,5,27,0.12
2013-3-26,40.2,33.2,24.0,19.9,14.5,-1.4,65,48,19,30.29,30.14,27,5,27,0.02
2013-3-27,47.6,37.1,28.0,21.0,11.1,-0.1,66,38,19,30.35,30.27,15,2,15,0.00
2013-3-28,55.2,41.0,26.4,24.7,15.0,6.2,71,39,19,30.36,30.24,28,1,28,0.00
2013-3-29,59.3,47.4,33.4,27.6,20.5,11.3,66,38,19,30.30,30.19,12,1,12,0.00
2013-3-30,55.7,47.3,38.3,42.4,31.1,0.0,82,54,40,30.20,29.87,44,3,44,0.00
2013-3-31,55.2,45.5,33.8,43.8,30.4,12.0,96,61,19,29.99,29.82,29,5,29,0.00